TimeCDT,TemperatureF,Dew PointF,Humidity,Sea Level PressureIn,VisibilityMPH,Wind Direction,Wind SpeedMPH,Gust SpeedMPH,PrecipitationIn,Events,Conditions,WindDirDegrees,DateUTC
12:52 AM,30.0,27.0,88,30.25,10.0,North,-9999.0,-,N/A,,Clear,0,2013-03-20 05:52:00
1:52 AM,28.9,25.0,85,30.25,10.0,North,-9999.0,-,N/A,,Clear,0,2013-03-20 06:52:00
2:52 AM,28.9,26.1,89,30.25,10.0,North,-9999.0,-,N/A,,Clear,0,2013-03-20 07:52:00
3:52 AM,28.9,26.1,89,30.24,10.0,Calm,Calm,-,N/A,,Clear,0,2013-03-20 08:52:00
4:52 AM,32.0,28.0,85,30.24,10.0,North,-9999.0,-,N/A,,Clear,0,2013-03-20 09:52:00
5:38 AM,33.1,28.9,85,30.23,10.0,North,-9999.0,-,N/A,,Mostly Cloudy,0,2013-03-20 10:38:00
5:52 AM,32.0,28.9,88,30.26,10.0,WNW,6.9,-,N/A,,Mostly Cloudy,300,2013-03-20 10:52:00
5:59 AM,32.0,28.9,88,30.24,10.0,NW,8.1,-,N/A,,Scattered Clouds,310,2013-03-20 10:59:00
6:31 AM,32.0,30.0,92,30.26,10.0,NW,10.4,-,N/A,,Mostly Cloudy,310,2013-03-20 11:31:00
6:52 AM,33.1,30.0,89,30.30,10.0,NW,11.5,-,N/A,,Overcast,320,2013-03-20 11:52:00
7:20 AM,33.1,30.9,92,30.29,8.0,NNW,17.3,-,N/A,,Overcast,340,2013-03-20 12:20:00
7:52 AM,33.1,30.0,89,30.34,7.0,NNW,16.1,-,N/A,,Overcast,340,2013-03-20 12:52:00
8:52 AM,32.0,19.9,61,30.36,10.0,North,19.6,-,N/A,,Overcast,350,2013-03-20 13:52:00
9:52 AM,34.0,19.0,54,30.35,10.0,NNW,12.7,-,N/A,,Mostly Cloudy,340,2013-03-20 14:52:00
10:52 AM,37.0,15.1,41,30.35,10.0,NW,19.6,26.5,N/A,,Mostly Cloudy,320,2013-03-20 15:52:00
11:52 AM,39.0,10.9,32,30.35,10.0,NW,17.3,24.2,N/A,,Clear,310,2013-03-20 16:52:00
12:52 PM,41.0,14.0,33,30.32,10.0,NW,16.1,28.8,N/A,,Clear,320,2013-03-20 17:52:00
1:52 PM,42.1,10.9,28,30.30,10.0,NNW,19.6,31.1,N/A,,Clear,330,2013-03-20 18:52:00
2:52 PM,42.1,9.0,26,30.25,10.0,North,-9999.0,-,N/A,,Clear,0,2013-03-20 19:52:00
3:52 PM,42.1,10.0,27,30.23,10.0,NNW,21.9,29.9,N/A,,Clear,330,2013-03-20 20:52:00
4:52 PM,42.1,10.9,28,30.20,10.0,NW,16.1,25.3,N/A,,Clear,320,2013-03-20 21:52:00
5:52 PM,39.9,10.0,29,30.20,10.0,NNW,17.3,27.6,N/A,,Clear,330,2013-03-20 22:52:00
6:52 PM,37.0,10.9,34,30.19,10.0,NNW,15.0,-,N/A,,Clear,340,2013-03-20 23:52:00
7:52 PM,30.9,14.0,50,30.17,10.0,NNW,9.2,-,N/A,,Clear,330,2013-03-21 00:52:00
8:52 PM,32.0,12.0,44,30.17,10.0,NW,4.6,-,N/A,,Clear,320,2013-03-21 01:52:00
9:52 PM,30.9,12.0,46,30.16,10.0,Calm,Calm,-,N/A,,Clear,0,2013-03-21 02:52:00
10:52 PM,28.9,15.1,56,30.17,10.0,NW,3.5,-,N/A,,Clear,310,2013-03-21 03:52:00
11:52 PM,25.0,15.1,66,30.15,10.0,Calm,Calm,-,N/A,,Clear,0,2013-03-21 04:52:00